Location: Unspecified
(36.9193°S, 174.7252°E)
Time: 00:05:36
(UTC+12:00)

Tiangong - Visible Passes

Search period start: 22 September 2021 00:00
Search period end: 02 October 2021 01:00
Orbit: 380 x 385 km, 41.5° (Epoch: 20 September)

Date Brightness Start Highest point End Pass type
(mag) Time Alt. Az. Time Alt. Az. Time Alt. Az.
22 Sep 1.1 19:06:21 10° WNW 19:09:31 66° NNE 19:11:45 18° ESE visible
22 Sep 4.4 20:43:24 10° W 20:43:57 14° WSW 20:43:57 14° WSW visible
23 Sep 1.7 19:43:01 10° W 19:46:09 50° SSW 19:46:53 40° SSE visible
24 Sep 1.2 18:42:42 10° WNW 18:45:55 75° SSW 18:49:07 10° ESE visible
24 Sep 3.2 20:20:00 10° WSW 20:21:56 27° SW 20:21:56 27° SW visible
25 Sep 2.2 19:19:37 10° W 19:22:40 39° S 19:24:43 17° SE visible
25 Sep 4.7 20:56:48 10° WSW 20:56:55 11° WSW 20:56:55 11° WSW visible
26 Sep 2.3 20:56:34 10° WSW 20:59:33 34° S 20:59:40 34° S visible
27 Sep 2.4 19:56:14 10° WSW 19:59:14 34° S 20:02:14 10° ESE visible
27 Sep 3.7 21:33:15 10° WSW 21:34:34 21° SW 21:34:34 21° SW visible
28 Sep 2.1 20:33:05 10° WSW 20:36:08 39° S 20:37:18 27° SE visible
29 Sep 2.0 21:09:42 10° WSW 21:12:13 49° SW 21:12:13 49° SW visible
30 Sep 1.6 20:09:35 10° WSW 20:12:43 49° SSE 20:14:59 17° E visible
30 Sep 4.2 21:46:30 10° W 21:47:10 15° W 21:47:10 15° W visible
01 Oct 1.2 20:46:13 10° WSW 20:49:26 68° NNW 20:49:59 53° NNE visible
